Tracking 23588 objects as of 6-Aug-2021
HD Live streaming from Space Station
objects crossing your sky now

FLOCK 3S 1

Track FLOCK 3S 1 now!
10-day predictions
FLOCK 3S 1 is classified as:


NORAD ID: 43769
Int'l Code: 2018-099M
Perigee: 579.5 km
Apogee: 597.3 km
Inclination: 97.7 °
Period: 96.3 minutes
Semi major axis: 6959 km
RCS: Unknown
Launch date: December 3, 2018
Source: United States (US)
Launch site: AIR FORCE WESTERN TEST RANGE (AFWTR)
aabbcc
Your satellite tracking list
Your tracking list is empty




NASA's NSSDC Master Catalog

Two Line Element Set (TLE):
1 43769U 18099M   21217.51235022  .00000083  00000-0  12714-4 0  9999
2 43769  97.6600 286.1120 0012785 248.8699 111.1155 14.95351037145786
Source of the keplerian elements: AFSPC